Satellite-Ground Cal/Val Site Overpasses Predictions

Prediction of Satellite NPP Overpassing Cal/Val Site: Antarctic Dome C

Ground Cal/Val Site Location: Latitude: -75.10, Longitude: 123.35; Satellite-Ground Site NADIR distance within 100 km.

Table of predicted overpasses for the next 14.0 days since TLE Epoch: 8/9/2015
Interval Starting Time Ending Time Minimum Distance Time Minimum Distance (km)
1 08/09/2015 15:05:09 08/09/2015 15:05:34 08/09/2015 15:05:22 55.68
2 08/10/2015 14:46:18 08/10/2015 14:46:43 08/10/2015 14:46:31 53.65
3 08/11/2015 07:47:59 08/11/2015 07:48:18 08/11/2015 07:48:09 74.54
4 08/12/2015 07:29:04 08/12/2015 07:29:32 08/12/2015 07:29:18 33.35
5 08/14/2015 15:11:28 08/14/2015 15:11:38 08/14/2015 15:11:33 93.28
6 08/15/2015 14:52:28 08/15/2015 14:52:57 08/15/2015 14:52:42 18.01
7 08/17/2015 07:35:15 08/17/2015 07:35:44 08/17/2015 07:35:30 3.79
8 08/20/2015 14:58:39 08/20/2015 14:59:08 08/20/2015 14:58:54 18.52
9 08/21/2015 14:39:56 08/21/2015 14:40:09 08/21/2015 14:40:03 88.76


NCC Satellite Cal/Val Overpasses Prediction Service
